START_TIME,STEP,MOV.,M29,t_acc.,H22,t_acc.,H26,t_acc.,H30,t_acc.
1979-08-06 00:00:30.500 ,0,0,0.,24.0,0.,24.0,0.,24.0,0.,24.0
1979-08-06 00:00:54.500 ,1,1,0.,24.0,0.,24.0,0.,24.0,0.,24.0
1979-08-06 00:01:18.500 ,1,0,0.,24.0,0.,24.0,0.,24.0,0.,24.0
1979-08-06 00:01:42.500 ,2,1,0.,24.0,0.,24.0,0.,24.0,0.,24.0
1979-08-06 00:02:06.500 ,2,0,0.,24.0,0.,24.0,0.,24.0,0.,24.0
1979-08-06 00:02:30.500 ,3,1,0.,24.0,0.,24.0,0.,24.0,0.,24.0
1979-08-06 00:02:54.500 ,3,0,0.,24.0,0.,24.0,0.,24.0,0.,24.0
1979-08-06 00:03:18.500 ,4,1,0.,24.0,0.,24.0,0.,24.0,0.,24.0
1979-08-06 00:03:42.500 ,4,0,0.,24.0,0.,24.0,0.,24.0,0.,24.0
1979-08-06 00:04:06.500 ,5,1,0.,24.0,0.,24.0,0.,24.0,0.,24.0
1979-08-06 00:04:30.500 ,5,0,0.,24.0,0.,24.0,0.,24.0,0.,24.0
1979-08-06 00:04:54.500 ,6,1,0.,24.0,0.,24.0,0.,24.0,0.,24.0
1979-08-06 00:05:18.500 ,6,0,0.,24.0,0.,24.0,0.,24.0,0.,24.0
1979-08-06 00:05:42.500 ,7,1,0.,24.0,0.,24.0,0.,24.0,0.,24.0
1979-08-06 00:06:06.500 ,7,0,0.,24.0,0.,24.0,0.,24.0,0.,24.0
1979-08-06 00:06:30.500 ,7,1,0.,24.0,0.,24.0,0.,24.0,0.,24.0
1979-08-06 00:06:54.500 ,7,0,0.,24.0,0.,24.0,0.,24.0,0.,24.0
1979-08-06 00:07:19.100 ,6,1,0.,24.0,0.,24.0,0.,24.0,0.,24.0
1979-08-06 00:07:42.500 ,6,0,0.,24.0,0.,24.0,0.,24.0,0.,24.0
1979-08-06 00:08:06.500 ,5,1,0.,24.0,0.,24.0,0.,24.0,0.,24.0
1979-08-06 00:08:30.500 ,5,0,0.,24.0,0.,24.0,0.,24.0,0.,24.0
1979-08-06 00:08:54.500 ,4,1,0.,24.0,0.,24.0,0.,24.0,0.,24.0
1979-08-06 00:09:18.500 ,4,0,0.,24.0,0.,24.0,0.,24.0,0.,24.0
1979-08-06 00:09:42.500 ,3,1,0.,24.0,0.,24.0,0.,24.0,0.,24.0
1979-08-06 00:10:06.500 ,3,0,0.,24.0,0.,24.0,0.,24.0,0.,24.0
1979-08-06 00:10:30.500 ,2,1,0.,24.0,0.,24.0,0.,24.0,0.,24.0
1979-08-06 00:10:54.500 ,2,0,0.,24.0,0.,24.0,0.,24.0,0.,24.0
1979-08-06 00:11:18.500 ,1,1,0.,24.0,0.,24.0,0.,24.0,0.,24.0
1979-08-06 00:11:42.500 ,1,0,0.,24.0,0.,24.0,0.,24.0,0.,24.0
1979-08-06 00:12:06.500 ,0,1,0.,24.0,0.,24.0,0.,24.0,0.,24.0
1979-08-06 00:12:30.500 ,0,0,0.,24.0,0.,24.0,0.,24.0,0.,24.0
1979-08-06 00:12:54.500 ,0,1,0.,24.0,0.,24.0,0.,24.0,0.,24.0
1979-08-06 00:13:18.500 ,0,0,0.,24.0,0.,24.0,0.,24.0,0.,24.0
1979-08-06 00:13:42.500 ,1,1,0.,24.0,0.,24.0,0.,24.0,0.,24.0
1979-08-06 00:14:06.500 ,1,0,0.,24.0,0.,24.0,0.,24.0,0.,24.0
1979-08-06 00:14:30.500 ,2,1,0.,24.0,0.,24.0,0.,24.0,0.,24.0
1979-08-06 00:14:54.500 ,0,0,,0,,0,,0,,0
1979-08-06 00:14:54.500 ,0,0,0.,24.0,0.,24.0,0.,24.0,0.,24.0
1979-08-06 00:15:20.300 ,3,1,0.,24.0,0.,24.0,0.,24.0,0.,24.0
1979-08-06 00:15:42.500 ,3,0,,0,,0,,0,,0
1979-08-06 00:16:06.500 ,4,1,1.,24.0,0.,24.0,0.,24.0,0.,24.0
1979-08-06 00:16:30.500 ,4,0,0.,24.0,0.,24.0,0.,24.0,0.,24.0
1979-08-06 00:16:54.500 ,5,1,0.,24.0,0.,24.0,0.,24.0,0.,24.0
1979-08-06 00:17:18.500 ,5,0,0.,24.0,0.,24.0,0.,24.0,0.,24.0
1979-08-06 00:17:42.500 ,6,1,0.,24.0,0.,24.0,0.,24.0,0.,24.0
1979-08-06 00:18:06.500 ,6,0,0.,24.0,0.,24.0,0.,24.0,0.,24.0
1979-08-06 00:18:30.500 ,7,0,0.,24.0,0.,24.0,0.,24.0,0.,24.0
1979-08-06 00:18:54.500 ,7,0,0.,24.0,0.,24.0,0.,24.0,0.,24.0
1979-08-06 00:19:18.500 ,5,1,0.,24.0,0.,24.0,0.,24.0,0.,24.0
1979-08-06 00:19:42.500 ,1,1,0.,24.0,0.,24.0,0.,24.0,0.,24.0
1979-08-06 00:20:06.500 ,2,1,0.,24.0,0.,24.0,0.,24.0,0.,24.0
1979-08-06 00:20:30.500 ,6,1,0.,24.0,0.,24.0,0.,24.0,0.,24.0
1979-08-06 00:20:54.500 ,5,1,0.,24.0,0.,24.0,0.,24.0,0.,24.0
1979-08-06 00:21:18.500 ,1,1,0.,24.0,0.,24.0,0.,24.0,0.,24.0
1979-08-06 00:21:42.500 ,2,1,0.,24.0,0.,24.0,0.,24.0,0.,24.0
1979-08-06 00:22:06.500 ,6,1,0.,24.0,0.,24.0,0.,24.0,0.,24.0
1979-08-06 00:22:30.500 ,5,1,0.,24.0,0.,24.0,0.,24.0,0.,24.0
1979-08-06 00:22:54.500 ,1,1,0.,24.0,0.,24.0,0.,24.0,0.,24.0
1979-08-06 00:23:18.500 ,2,1,0.,24.0,0.,24.0,0.,24.0,0.,24.0
1979-08-06 00:23:42.500 ,6,1,0.,24.0,0.,24.0,0.,24.0,0.,24.0
1979-08-06 00:24:06.500 ,5,1,0.,24.0,0.,24.0,0.,24.0,0.,24.0
1979-08-06 00:24:30.500 ,1,1,0.,24.0,0.,24.0,0.,24.0,0.,24.0
1979-08-06 00:24:54.500 ,0,0,0.,24.0,0.,24.0,0.,24.0,0.,24.0
1979-08-06 00:25:18.500 ,0,0,0.,24.0,0.,24.0,0.,24.0,0.,24.0
1979-08-06 00:25:42.500 ,5,1,0.,24.0,0.,24.0,0.,24.0,0.,24.0
1979-08-06 00:26:06.500 ,1,1,0.,24.0,0.,24.0,0.,24.0,0.,24.0
1979-08-06 00:26:30.500 ,2,1,0.,24.0,0.,24.0,0.,24.0,0.,24.0
1979-08-06 00:26:54.500 ,6,1,1.,24.0,0.,24.0,0.,24.0,0.,24.0
1979-08-06 00:27:18.500 ,5,1,0.,24.0,0.,24.0,0.,24.0,0.,24.0
1979-08-06 00:27:42.500 ,1,1,0.,24.0,0.,24.0,0.,24.0,0.,24.0
1979-08-06 00:28:06.500 ,2,1,0.,24.0,0.,24.0,0.,24.0,0.,24.0
1979-08-06 00:28:30.500 ,6,1,0.,24.0,0.,24.0,0.,24.0,0.,24.0
1979-08-06 00:28:54.500 ,5,1,0.,24.0,0.,24.0,0.,24.0,0.,24.0
1979-08-06 00:29:18.500 ,1,1,0.,24.0,0.,24.0,0.,24.0,0.,24.0
1979-08-06 00:29:42.500 ,0,0,0.,24.0,0.,24.0,0.,24.0,0.,24.0
1979-08-06 00:30:06.500 ,0,0,0.,24.0,0.,24.0,0.,24.0,0.,24.0
1979-08-06 00:30:30.500 ,5,1,0.,24.0,0.,24.0,0.,24.0,0.,24.0
1979-08-06 00:30:54.500 ,5,0,0.,24.0,0.,24.0,0.,24.0,0.,24.0
1979-08-06 00:31:18.500 ,4,1,0.,24.0,0.,24.0,0.,24.0,0.,24.0
1979-08-06 00:31:42.500 ,4,0,0.,24.0,0.,24.0,0.,24.0,0.,24.0
1979-08-06 00:32:06.500 ,3,1,0.,24.0,0.,24.0,0.,24.0,0.,24.0
1979-08-06 00:32:30.500 ,3,0,0.,24.0,0.,24.0,0.,24.0,0.,24.0
1979-08-06 00:32:54.500 ,2,1,0.,24.0,0.,24.0,0.,24.0,0.,24.0
1979-08-06 00:33:18.500 ,2,0,0.,24.0,0.,24.0,0.,24.0,0.,24.0
1979-08-06 00:33:42.500 ,1,1,0.,24.0,0.,24.0,0.,24.0,0.,24.0
1979-08-06 00:34:06.500 ,1,0,0.,24.0,0.,24.0,0.,24.0,0.,24.0
1979-08-06 00:34:30.500 ,0,1,0.,24.0,0.,24.0,0.,24.0,0.,24.0
1979-08-06 00:34:54.500 ,0,0,0.,24.0,0.,24.0,0.,24.0,0.,24.0
1979-08-06 00:35:18.500 ,0,1,0.,24.0,0.,24.0,0.,24.0,0.,24.0
1979-08-06 00:35:42.500 ,0,0,0.,24.0,0.,24.0,0.,24.0,0.,24.0
1979-08-06 00:36:06.500 ,1,1,0.,24.0,0.,24.0,0.,24.0,0.,24.0
1979-08-06 00:36:30.500 ,1,0,0.,24.0,0.,24.0,0.,24.0,0.,24.0
1979-08-06 00:36:54.500 ,2,1,0.,24.0,0.,24.0,0.,24.0,0.,24.0
1979-08-06 00:37:18.500 ,2,0,0.,24.0,0.,24.0,0.,24.0,0.,24.0
1979-08-06 00:37:42.500 ,3,1,0.,24.0,0.,24.0,0.,24.0,0.,24.0
1979-08-06 00:38:06.500 ,3,0,0.,24.0,0.,24.0,0.,24.0,0.,24.0
1979-08-06 00:38:30.500 ,4,1,0.,24.0,0.,24.0,0.,24.0,0.,24.0
1979-08-06 00:38:54.500 ,4,0,0.,24.0,0.,24.0,0.,24.0,0.,24.0
1979-08-06 00:39:18.500 ,5,1,0.,24.0,0.,24.0,0.,24.0,0.,24.0
1979-08-06 00:39:42.500 ,5,0,0.,24.0,0.,24.0,0.,24.0,0.,24.0
1979-08-06 00:40:06.500 ,6,1,0.,24.0,0.,24.0,0.,24.0,0.,24.0
1979-08-06 00:40:30.500 ,6,0,0.,24.0,0.,24.0,0.,24.0,0.,24.0
1979-08-06 00:40:54.500 ,7,1,0.,24.0,0.,24.0,0.,24.0,0.,24.0
1979-08-06 00:41:18.500 ,7,0,0.,24.0,0.,24.0,0.,24.0,0.,24.0
1979-08-06 00:41:42.500 ,7,1,0.,24.0,0.,24.0,0.,24.0,0.,24.0
1979-08-06 00:42:06.500 ,7,0,0.,24.0,0.,24.0,0.,24.0,0.,24.0
1979-08-06 00:42:30.500 ,6,1,0.,24.0,0.,24.0,0.,24.0,0.,24.0
1979-08-06 00:42:54.500 ,0,0,0.,24.0,0.,24.0,0.,24.0,0.,24.0
1979-08-06 00:43:18.500 ,5,1,1.,24.0,0.,24.0,0.,24.0,0.,24.0
1979-08-06 00:43:42.500 ,5,0,0.,24.0,0.,24.0,0.,24.0,0.,24.0
1979-08-06 00:44:06.500 ,4,1,0.,24.0,0.,24.0,0.,24.0,0.,24.0
1979-08-06 00:44:30.500 ,4,0,0.,24.0,0.,24.0,0.,24.0,0.,24.0
1979-08-06 00:44:54.500 ,3,1,0.,24.0,0.,24.0,0.,24.0,0.,24.0
1979-08-06 00:45:18.500 ,3,0,0.,24.0,0.,24.0,0.,24.0,0.,24.0
1979-08-06 00:45:42.500 ,2,1,0.,24.0,0.,24.0,0.,24.0,0.,24.0
1979-08-06 00:46:06.500 ,2,0,0.,24.0,0.,24.0,0.,24.0,0.,24.0
1979-08-06 00:46:30.500 ,1,1,0.,24.0,0.,24.0,0.,24.0,0.,24.0
1979-08-06 00:46:54.500 ,1,0,0.,24.0,0.,24.0,0.,24.0,0.,24.0
1979-08-06 00:47:18.500 ,0,1,0.,24.0,0.,24.0,0.,24.0,0.,24.0
1979-08-06 00:47:42.500 ,0,0,0.,24.0,0.,24.0,0.,24.0,0.,24.0
1979-08-06 00:48:06.500 ,0,1,0.,24.0,0.,24.0,0.,24.0,0.,24.0
1979-08-06 00:48:30.500 ,0,0,0.,24.0,0.,24.0,0.,24.0,0.,24.0
1979-08-06 00:48:54.500 ,1,1,0.,24.0,0.,24.0,0.,24.0,0.,24.0
1979-08-06 00:49:18.500 ,1,0,0.,24.0,0.,24.0,0.,24.0,0.,24.0
1979-08-06 00:49:42.500 ,2,1,0.,24.0,0.,24.0,0.,24.0,0.,24.0
1979-08-06 00:50:06.500 ,2,0,0.,24.0,0.,24.0,0.,24.0,0.,24.0
1979-08-06 00:50:30.500 ,3,1,0.,24.0,0.,24.0,0.,24.0,0.,24.0
1979-08-06 00:50:54.500 ,3,0,0.,24.0,0.,24.0,0.,24.0,0.,24.0
1979-08-06 00:51:18.500 ,4,1,0.,24.0,0.,24.0,0.,24.0,0.,24.0
1979-08-06 00:51:42.500 ,4,0,0.,24.0,0.,24.0,0.,24.0,0.,24.0
1979-08-06 00:52:06.500 ,5,1,0.,24.0,0.,24.0,0.,24.0,0.,24.0
1979-08-06 00:52:30.500 ,5,0,0.,24.0,0.,24.0,0.,24.0,0.,24.0
1979-08-06 00:52:54.500 ,0,0,0.,24.0,0.,24.0,0.,24.0,0.,24.0
1979-08-06 00:53:18.500 ,0,0,,0,,0,,0,,0
1979-08-06 00:54:18.500 ,0,0,,0,,0,,0,,0
1979-08-06 00:54:30.500 ,7,1,0.,24.0,0.,24.0,0.,24.0,0.,24.0
1979-08-06 00:54:54.500 ,7,0,0.,24.0,0.,24.0,0.,24.0,0.,24.0
1979-08-06 00:55:18.500 ,6,1,0.,24.0,0.,24.0,0.,24.0,0.,24.0
1979-08-06 00:55:42.500 ,6,0,0.,24.0,0.,24.0,0.,24.0,0.,24.0
1979-08-06 00:56:06.500 ,5,1,0.,24.0,0.,24.0,0.,24.0,0.,24.0
1979-08-06 00:56:30.500 ,0,0,0.,24.0,0.,24.0,0.,24.0,0.,24.0
1979-08-06 00:56:54.500 ,4,1,0.,24.0,0.,24.0,0.,24.0,0.,24.0
1979-08-06 00:57:18.500 ,4,0,0.,24.0,0.,24.0,0.,24.0,0.,24.0
1979-08-06 00:57:42.500 ,3,1,0.,24.0,0.,24.0,0.,24.0,0.,24.0
1979-08-06 00:58:06.500 ,3,0,0.,24.0,0.,24.0,0.,24.0,0.,24.0
1979-08-06 00:58:30.500 ,2,1,0.,24.0,0.,24.0,0.,24.0,0.,24.0
1979-08-06 00:58:54.500 ,2,0,0.,24.0,0.,24.0,0.,24.0,0.,24.0
1979-08-06 00:59:18.500 ,1,0,,0,,0,,0,,0
1979-08-06 00:59:42.500 ,1,0,0.,24.0,0.,24.0,0.,24.0,0.,24.0
1979-08-06 01:00:06.500 ,0,1,0.,24.0,0.,24.0,0.,24.0,0.,24.0
1979-08-06 01:00:30.500 ,0,0,1.,24.0,0.,24.0,0.,24.0,0.,24.0
1979-08-06 01:00:54.500 ,0,1,0.,24.0,0.,24.0,0.,24.0,0.,24.0
1979-08-06 01:01:18.500 ,0,0,0.,24.0,0.,24.0,0.,24.0,0.,24.0
1979-08-06 01:01:42.500 ,1,1,0.,24.0,0.,24.0,0.,24.0,0.,24.0
1979-08-06 01:02:06.500 ,1,0,0.,24.0,0.,24.0,0.,24.0,0.,24.0
1979-08-06 01:02:30.500 ,2,1,0.,24.0,0.,24.0,0.,24.0,0.,24.0
1979-08-06 01:02:54.500 ,2,0,0.,24.0,0.,24.0,0.,24.0,0.,24.0
1979-08-06 01:03:18.500 ,3,1,1.,24.0,0.,24.0,0.,24.0,0.,24.0
1979-08-06 01:03:42.500 ,3,0,0.,24.0,0.,24.0,0.,24.0,0.,24.0
1979-08-06 01:04:06.500 ,4,1,0.,24.0,0.,24.0,0.,24.0,0.,24.0
1979-08-06 01:04:30.500 ,4,0,0.,24.0,0.,24.0,0.,24.0,0.,24.0
1979-08-06 01:04:54.500 ,5,1,0.,24.0,0.,24.0,0.,24.0,0.,24.0
1979-08-06 01:05:18.500 ,5,0,0.,24.0,0.,24.0,0.,24.0,0.,24.0
1979-08-06 01:05:42.500 ,6,1,0.,24.0,0.,24.0,0.,24.0,0.,24.0
1979-08-06 01:06:06.500 ,6,0,0.,24.0,0.,24.0,0.,24.0,0.,24.0
1979-08-06 01:06:30.500 ,7,0,1.,24.0,0.,24.0,0.,24.0,0.,24.0
1979-08-06 01:06:54.500 ,7,0,0.,24.0,0.,24.0,0.,24.0,0.,24.0
1979-08-06 01:07:18.500 ,5,1,0.,24.0,0.,24.0,0.,24.0,0.,24.0
1979-08-06 01:07:42.500 ,1,1,0.,24.0,0.,24.0,0.,24.0,0.,24.0
1979-08-06 01:08:06.500 ,2,1,0.,24.0,0.,24.0,0.,24.0,0.,24.0
1979-08-06 01:08:30.500 ,6,1,0.,24.0,0.,24.0,0.,24.0,0.,24.0
1979-08-06 01:08:54.500 ,5,1,0.,24.0,0.,24.0,0.,24.0,0.,24.0
1979-08-06 01:09:18.500 ,1,1,0.,24.0,0.,24.0,0.,24.0,0.,24.0
1979-08-06 01:09:42.500 ,2,1,0.,24.0,0.,24.0,0.,24.0,0.,24.0
1979-08-06 01:10:06.500 ,6,1,0.,24.0,0.,24.0,0.,24.0,0.,24.0
1979-08-06 01:10:30.500 ,5,1,0.,24.0,0.,24.0,0.,24.0,0.,24.0
1979-08-06 01:10:54.500 ,1,1,0.,24.0,0.,24.0,0.,24.0,0.,24.0
1979-08-06 01:11:18.500 ,2,1,1.,24.0,0.,24.0,0.,24.0,0.,24.0
1979-08-06 01:11:42.500 ,6,1,0.,24.0,0.,24.0,0.,24.0,0.,24.0
1979-08-06 01:12:06.500 ,5,1,0.,24.0,0.,24.0,0.,24.0,0.,24.0
1979-08-06 01:12:30.500 ,1,1,0.,24.0,0.,24.0,0.,24.0,0.,24.0
1979-08-06 01:12:54.500 ,2,1,0.,24.0,0.,24.0,0.,24.0,0.,24.0
1979-08-06 01:13:18.500 ,6,1,0.,24.0,0.,24.0,0.,24.0,0.,24.0
1979-08-06 01:13:42.500 ,5,1,0.,24.0,0.,24.0,0.,24.0,0.,24.0
1979-08-06 01:14:06.500 ,1,1,0.,24.0,0.,24.0,0.,24.0,0.,24.0
1979-08-06 01:14:30.500 ,2,1,0.,24.0,0.,24.0,0.,24.0,0.,24.0
1979-08-06 01:14:54.500 ,6,1,0.,24.0,0.,24.0,0.,24.0,0.,24.0
1979-08-06 01:15:18.500 ,5,1,0.,24.0,0.,24.0,0.,24.0,0.,24.0
1979-08-06 01:15:42.500 ,1,1,0.,24.0,0.,24.0,0.,24.0,0.,24.0
1979-08-06 01:16:06.500 ,2,1,0.,24.0,0.,24.0,0.,24.0,0.,24.0
1979-08-06 01:16:30.500 ,6,1,0.,24.0,0.,24.0,0.,24.0,0.,24.0
1979-08-06 01:16:54.500 ,5,1,0.,24.0,0.,24.0,0.,24.0,0.,24.0
1979-08-06 01:17:18.500 ,1,1,0.,24.0,0.,24.0,0.,24.0,0.,24.0
1979-08-06 01:17:42.500 ,0,0,0.,24.0,0.,24.0,0.,24.0,0.,24.0
1979-08-06 01:18:06.500 ,0,0,0.,24.0,0.,24.0,0.,24.0,0.,24.0
1979-08-06 01:18:30.500 ,5,1,0.,24.0,0.,24.0,0.,24.0,0.,24.0
1979-08-06 01:18:54.500 ,5,0,0.,24.0,0.,24.0,0.,24.0,0.,24.0
1979-08-06 01:19:18.500 ,4,1,0.,24.0,0.,24.0,0.,24.0,0.,24.0
1979-08-06 01:19:42.500 ,4,0,0.,24.0,0.,24.0,0.,24.0,0.,24.0
1979-08-06 01:20:06.500 ,3,1,0.,24.0,0.,24.0,0.,24.0,0.,24.0
1979-08-06 01:20:30.500 ,3,0,0.,24.0,0.,24.0,0.,24.0,0.,24.0
1979-08-06 01:20:54.500 ,2,1,0.,24.0,0.,24.0,0.,24.0,0.,24.0
1979-08-06 01:21:18.500 ,2,0,0.,24.0,0.,24.0,0.,24.0,0.,24.0
1979-08-06 01:21:42.500 ,1,1,0.,24.0,0.,24.0,0.,24.0,0.,24.0
1979-08-06 01:22:06.500 ,1,0,0.,24.0,0.,24.0,0.,24.0,0.,24.0
1979-08-06 01:22:30.500 ,0,1,0.,24.0,0.,24.0,0.,24.0,0.,24.0
1979-08-06 01:22:54.500 ,0,0,0.,24.0,0.,24.0,0.,24.0,0.,24.0
1979-08-06 01:23:18.500 ,0,1,0.,24.0,0.,24.0,0.,24.0,0.,24.0
1979-08-06 01:23:42.500 ,0,0,0.,24.0,0.,24.0,0.,24.0,0.,24.0
1979-08-06 01:24:06.500 ,1,0,,0,,0,,0,,0
1979-08-06 01:24:30.500 ,1,0,0.,24.0,0.,24.0,0.,24.0,0.,24.0
1979-08-06 01:24:54.500 ,2,1,0.,24.0,0.,24.0,0.,24.0,0.,24.0
1979-08-06 01:25:18.500 ,2,0,0.,24.0,0.,24.0,0.,24.0,0.,24.0
1979-08-06 01:25:42.500 ,3,1,0.,24.0,0.,24.0,0.,24.0,0.,24.0
1979-08-06 01:26:06.500 ,3,0,0.,24.0,0.,24.0,0.,24.0,0.,24.0
1979-08-06 01:26:30.500 ,4,1,0.,24.0,0.,24.0,0.,24.0,0.,24.0
1979-08-06 01:26:54.500 ,4,0,0.,24.0,0.,24.0,0.,24.0,0.,24.0
1979-08-06 01:27:18.500 ,5,1,0.,24.0,0.,24.0,0.,24.0,0.,24.0
1979-08-06 01:27:42.500 ,5,0,0.,24.0,0.,24.0,0.,24.0,0.,24.0
1979-08-06 01:28:06.500 ,6,1,0.,24.0,0.,24.0,0.,24.0,0.,24.0
1979-08-06 01:28:30.500 ,6,0,0.,24.0,0.,24.0,0.,24.0,0.,24.0
1979-08-06 01:28:54.500 ,7,1,0.,24.0,0.,24.0,0.,24.0,0.,24.0
1979-08-06 01:29:18.500 ,7,0,0.,24.0,0.,24.0,0.,24.0,0.,24.0
1979-08-06 01:29:42.500 ,7,1,0.,24.0,0.,24.0,0.,24.0,0.,24.0
1979-08-06 01:30:06.500 ,7,0,0.,24.0,0.,24.0,0.,24.0,0.,24.0
1979-08-06 01:30:30.500 ,6,1,0.,24.0,0.,24.0,0.,24.0,0.,24.0
1979-08-06 01:30:54.500 ,6,0,0.,24.0,0.,24.0,0.,24.0,0.,24.0
1979-08-06 01:31:18.500 ,5,1,0.,24.0,0.,24.0,0.,24.0,0.,24.0
1979-08-06 01:31:42.500 ,5,0,0.,24.0,0.,24.0,0.,24.0,0.,24.0
1979-08-06 01:32:06.500 ,4,1,0.,24.0,0.,24.0,0.,24.0,0.,24.0
1979-08-06 01:32:30.500 ,4,0,0.,24.0,0.,24.0,0.,24.0,0.,24.0
1979-08-06 01:32:54.500 ,3,1,0.,24.0,0.,24.0,0.,24.0,0.,24.0
1979-08-06 01:33:18.500 ,0,0,0.,24.0,0.,24.0,0.,24.0,0.,24.0
1979-08-06 01:33:42.500 ,0,0,0.,24.0,0.,24.0,0.,24.0,0.,24.0
1979-08-06 01:34:06.500 ,0,0,,0,,0,,0,,0
1979-08-06 01:34:06.500 ,0,0,0.,24.0,0.,24.0,0.,24.0,0.,24.0
1979-08-06 01:34:30.500 ,1,1,0.,24.0,0.,24.0,0.,24.0,0.,24.0
1979-08-06 01:34:54.500 ,1,0,0.,24.0,0.,24.0,0.,24.0,0.,24.0
1979-08-06 01:35:18.500 ,0,1,0.,24.0,0.,24.0,0.,24.0,0.,24.0
1979-08-06 01:35:42.500 ,0,0,0.,24.0,0.,24.0,0.,24.0,0.,24.0
1979-08-06 01:36:06.500 ,0,1,0.,24.0,0.,24.0,0.,24.0,0.,24.0
1979-08-06 01:36:30.500 ,0,0,0.,24.0,0.,24.0,0.,24.0,0.,24.0
1979-08-06 01:36:54.500 ,1,1,0.,24.0,0.,24.0,0.,24.0,0.,24.0
1979-08-06 01:37:18.500 ,1,0,0.,24.0,0.,24.0,0.,24.0,0.,24.0
1979-08-06 01:37:42.500 ,2,1,0.,24.0,0.,24.0,0.,24.0,0.,24.0
1979-08-06 01:38:06.500 ,2,0,0.,24.0,0.,24.0,0.,24.0,0.,24.0
1979-08-06 01:38:30.500 ,3,1,0.,24.0,0.,24.0,0.,24.0,0.,24.0
1979-08-06 01:38:54.500 ,3,0,1.,24.0,0.,24.0,0.,24.0,0.,24.0
1979-08-06 01:39:18.500 ,4,1,0.,24.0,0.,24.0,0.,24.0,0.,24.0
1979-08-06 01:39:42.500 ,4,0,0.,24.0,0.,24.0,0.,24.0,0.,24.0
1979-08-06 01:40:06.500 ,0,0,0.,24.0,0.,24.0,0.,24.0,0.,24.0
1979-08-06 01:40:30.500 ,0,0,0.,24.0,0.,24.0,0.,24.0,0.,24.0
1979-08-06 01:40:54.500 ,6,1,0.,24.0,0.,24.0,0.,24.0,0.,24.0
1979-08-06 01:41:18.500 ,6,0,0.,24.0,0.,24.0,0.,24.0,0.,24.0
1979-08-06 01:41:42.500 ,7,1,0.,24.0,0.,24.0,0.,24.0,0.,24.0
1979-08-06 01:42:06.500 ,7,0,0.,24.0,0.,24.0,0.,24.0,0.,24.0
1979-08-06 01:42:30.500 ,7,1,0.,24.0,0.,24.0,0.,24.0,0.,24.0
1979-08-06 01:42:54.500 ,7,0,0.,24.0,0.,24.0,0.,24.0,0.,24.0
1979-08-06 01:43:18.500 ,6,1,0.,24.0,0.,24.0,0.,24.0,0.,24.0
1979-08-06 01:43:42.500 ,6,0,0.,24.0,0.,24.0,0.,24.0,0.,24.0
1979-08-06 01:44:06.500 ,5,1,0.,24.0,0.,24.0,0.,24.0,0.,24.0
1979-08-06 01:44:30.500 ,5,0,0.,24.0,0.,24.0,0.,24.0,0.,24.0
1979-08-06 01:44:54.500 ,4,1,0.,24.0,0.,24.0,0.,24.0,0.,24.0
1979-08-06 01:45:18.500 ,4,0,0.,24.0,0.,24.0,0.,24.0,0.,24.0
1979-08-06 01:45:42.500 ,3,1,0.,24.0,0.,24.0,0.,24.0,0.,24.0
1979-08-06 01:46:06.500 ,3,0,0.,24.0,0.,24.0,0.,24.0,0.,24.0
1979-08-06 01:46:30.500 ,2,1,0.,24.0,0.,24.0,0.,24.0,0.,24.0
1979-08-06 01:46:54.500 ,2,0,0.,24.0,0.,24.0,0.,24.0,0.,24.0
1979-08-06 01:47:18.500 ,1,1,0.,24.0,0.,24.0,0.,24.0,0.,24.0
1979-08-06 01:47:42.500 ,1,0,0.,24.0,0.,24.0,0.,24.0,0.,24.0
1979-08-06 01:48:06.500 ,0,1,0.,24.0,0.,24.0,0.,24.0,0.,24.0
1979-08-06 01:48:30.500 ,0,0,0.,24.0,0.,24.0,0.,24.0,0.,24.0
1979-08-06 01:48:54.500 ,0,1,0.,24.0,0.,24.0,0.,24.0,0.,24.0
1979-08-06 01:49:18.500 ,0,0,0.,24.0,0.,24.0,0.,24.0,0.,24.0
1979-08-06 01:49:42.500 ,1,1,0.,24.0,0.,24.0,0.,24.0,0.,24.0
1979-08-06 01:50:06.500 ,1,0,0.,24.0,0.,24.0,0.,24.0,0.,24.0
1979-08-06 01:50:30.500 ,2,1,0.,24.0,0.,24.0,0.,24.0,0.,24.0
1979-08-06 01:50:54.500 ,2,0,0.,24.0,0.,24.0,0.,24.0,0.,24.0
1979-08-06 01:51:18.500 ,3,1,0.,24.0,0.,24.0,0.,24.0,0.,24.0
1979-08-06 01:51:42.500 ,3,0,0.,24.0,0.,24.0,0.,24.0,0.,24.0
1979-08-06 01:52:06.500 ,4,1,0.,24.0,0.,24.0,0.,24.0,0.,24.0
1979-08-06 01:52:30.500 ,4,0,0.,24.0,0.,24.0,0.,24.0,0.,24.0
1979-08-06 01:52:54.500 ,5,1,0.,24.0,0.,24.0,0.,24.0,0.,24.0
1979-08-06 01:53:18.500 ,5,0,0.,24.0,0.,24.0,0.,24.0,0.,24.0
1979-08-06 01:53:42.500 ,6,1,0.,24.0,0.,24.0,0.,24.0,0.,24.0
1979-08-06 01:54:06.500 ,6,0,0.,24.0,0.,24.0,0.,24.0,0.,24.0
1979-08-06 01:54:30.500 ,7,0,0.,24.0,0.,24.0,0.,24.0,0.,24.0
1979-08-06 01:54:54.500 ,7,0,0.,24.0,0.,24.0,0.,24.0,0.,24.0
1979-08-06 01:55:18.500 ,5,1,0.,24.0,0.,24.0,0.,24.0,0.,24.0
1979-08-06 01:55:42.500 ,1,1,0.,24.0,0.,24.0,0.,24.0,0.,24.0
1979-08-06 01:56:06.500 ,2,1,0.,24.0,0.,24.0,0.,24.0,0.,24.0
1979-08-06 01:56:30.500 ,6,1,0.,24.0,0.,24.0,0.,24.0,0.,24.0
1979-08-06 01:56:54.500 ,5,1,0.,24.0,0.,24.0,0.,24.0,0.,24.0
1979-08-06 01:57:18.500 ,1,1,0.,24.0,0.,24.0,0.,24.0,0.,24.0
1979-08-06 01:57:42.500 ,2,1,0.,24.0,0.,24.0,0.,24.0,0.,24.0
1979-08-06 01:58:06.500 ,0,0,0.,24.0,0.,24.0,0.,24.0,0.,24.0
1979-08-06 01:58:30.500 ,0,0,0.,24.0,0.,24.0,0.,24.0,0.,24.0
1979-08-06 01:58:54.500 ,1,1,0.,24.0,0.,24.0,0.,24.0,0.,24.0
1979-08-06 01:59:18.500 ,2,1,1.,24.0,0.,24.0,0.,24.0,0.,24.0
1979-08-06 01:59:42.500 ,6,1,0.,24.0,0.,24.0,0.,24.0,0.,24.0
1979-08-06 02:00:06.500 ,5,1,0.,24.0,0.,24.0,0.,24.0,0.,24.0
1979-08-06 02:00:30.500 ,1,1,0.,24.0,0.,24.0,0.,24.0,0.,24.0
1979-08-06 02:00:54.500 ,2,1,0.,24.0,0.,24.0,0.,24.0,0.,24.0
1979-08-06 02:01:18.500 ,6,1,0.,24.0,0.,24.0,0.,24.0,0.,24.0
1979-08-06 02:01:42.500 ,5,1,0.,24.0,0.,24.0,0.,24.0,0.,24.0
1979-08-06 02:02:06.500 ,1,1,0.,24.0,0.,24.0,0.,24.0,0.,24.0
1979-08-06 02:02:30.500 ,2,1,0.,24.0,0.,24.0,0.,24.0,0.,24.0
1979-08-06 02:02:54.500 ,6,1,0.,24.0,0.,24.0,0.,24.0,0.,24.0
1979-08-06 02:03:18.500 ,5,1,0.,24.0,0.,24.0,0.,24.0,0.,24.0
1979-08-06 02:03:42.500 ,0,0,0.,24.0,0.,24.0,0.,24.0,0.,24.0
1979-08-06 02:04:06.500 ,0,0,0.,24.0,0.,24.0,0.,24.0,0.,24.0
1979-08-06 02:04:30.500 ,6,1,0.,24.0,0.,24.0,0.,24.0,0.,24.0
1979-08-06 02:04:54.500 ,5,1,0.,24.0,0.,24.0,0.,24.0,0.,24.0
1979-08-06 02:05:18.500 ,1,1,0.,24.0,0.,24.0,0.,24.0,0.,24.0
1979-08-06 02:05:42.500 ,0,0,0.,24.0,0.,24.0,0.,24.0,0.,24.0
1979-08-06 02:06:06.500 ,0,0,0.,24.0,0.,24.0,0.,24.0,0.,24.0
1979-08-06 02:06:30.500 ,5,1,0.,24.0,0.,24.0,0.,24.0,0.,24.0
1979-08-06 02:06:54.500 ,5,0,0.,24.0,0.,24.0,0.,24.0,0.,24.0
1979-08-06 02:07:18.500 ,4,1,0.,24.0,0.,24.0,0.,24.0,0.,24.0
1979-08-06 02:07:42.500 ,4,0,0.,24.0,0.,24.0,0.,24.0,0.,24.0
1979-08-06 02:08:06.500 ,3,1,0.,24.0,0.,24.0,0.,24.0,0.,24.0
1979-08-06 02:08:30.500 ,3,0,0.,24.0,0.,24.0,0.,24.0,0.,24.0
1979-08-06 02:08:54.500 ,2,1,0.,24.0,0.,24.0,0.,24.0,0.,24.0
1979-08-06 02:09:18.500 ,2,0,0.,24.0,0.,24.0,0.,24.0,0.,24.0
1979-08-06 02:09:42.500 ,1,1,0.,24.0,0.,24.0,0.,24.0,0.,24.0
1979-08-06 02:10:06.500 ,1,0,0.,24.0,0.,24.0,0.,24.0,0.,24.0
1979-08-06 02:10:30.500 ,0,0,0.,24.0,0.,24.0,0.,24.0,0.,24.0
1979-08-06 02:10:54.500 ,0,0,0.,24.0,0.,24.0,0.,24.0,0.,24.0
1979-08-06 02:11:18.500 ,0,1,0.,24.0,0.,24.0,0.,24.0,0.,24.0
1979-08-06 02:11:42.500 ,0,0,0.,24.0,0.,24.0,0.,24.0,0.,24.0
1979-08-06 02:12:06.500 ,1,1,0.,24.0,0.,24.0,0.,24.0,0.,24.0
1979-08-06 02:12:30.500 ,1,0,0.,24.0,0.,24.0,0.,24.0,0.,24.0
1979-08-06 02:12:54.500 ,2,1,0.,24.0,0.,24.0,0.,24.0,0.,24.0
1979-08-06 02:13:18.500 ,2,0,0.,24.0,0.,24.0,0.,24.0,0.,24.0
1979-08-06 02:13:42.500 ,3,1,0.,24.0,0.,24.0,0.,24.0,0.,24.0
1979-08-06 02:14:06.500 ,3,0,0.,24.0,0.,24.0,0.,24.0,0.,24.0
1979-08-06 02:14:30.500 ,4,1,0.,24.0,0.,24.0,0.,24.0,0.,24.0
1979-08-06 02:14:54.500 ,4,0,0.,24.0,0.,24.0,0.,24.0,0.,24.0
1979-08-06 02:15:18.500 ,5,1,0.,24.0,0.,24.0,0.,24.0,0.,24.0
1979-08-06 02:15:42.500 ,5,0,0.,24.0,0.,24.0,0.,24.0,0.,24.0
1979-08-06 02:16:06.500 ,6,1,0.,24.0,0.,24.0,0.,24.0,0.,24.0
1979-08-06 02:16:30.500 ,6,0,1.,24.0,0.,24.0,0.,24.0,0.,24.0
1979-08-06 02:16:54.500 ,7,1,0.,24.0,0.,24.0,0.,24.0,0.,24.0
1979-08-06 02:17:18.500 ,7,0,0.,24.0,0.,24.0,0.,24.0,0.,24.0
1979-08-06 02:17:42.500 ,7,1,0.,24.0,0.,24.0,0.,24.0,0.,24.0
1979-08-06 02:18:06.500 ,7,0,0.,24.0,0.,24.0,0.,24.0,0.,24.0
1979-08-06 02:18:30.500 ,6,1,0.,24.0,0.,24.0,0.,24.0,0.,24.0
1979-08-06 02:18:54.500 ,6,0,0.,24.0,0.,24.0,0.,24.0,0.,24.0
1979-08-06 02:19:18.500 ,5,1,0.,24.0,0.,24.0,0.,24.0,0.,24.0
1979-08-06 02:19:42.500 ,5,0,0.,24.0,0.,24.0,0.,24.0,0.,24.0
1979-08-06 02:20:06.500 ,4,1,0.,24.0,0.,24.0,0.,24.0,0.,24.0
1979-08-06 02:20:30.500 ,4,0,0.,24.0,0.,24.0,0.,24.0,0.,24.0
1979-08-06 02:20:54.500 ,3,1,0.,24.0,0.,24.0,0.,24.0,0.,24.0
1979-08-06 02:21:18.500 ,3,0,0.,24.0,0.,24.0,0.,24.0,0.,24.0
1979-08-06 02:21:42.500 ,2,1,0.,24.0,0.,24.0,0.,24.0,0.,24.0
1979-08-06 02:22:06.500 ,2,0,0.,24.0,0.,24.0,0.,24.0,0.,24.0
1979-08-06 02:22:30.500 ,1,1,0.,24.0,0.,24.0,0.,24.0,0.,24.0
1979-08-06 02:22:54.500 ,1,0,0.,24.0,0.,24.0,0.,24.0,0.,24.0
1979-08-06 02:23:18.500 ,0,1,0.,24.0,0.,24.0,0.,24.0,0.,24.0
1979-08-06 02:23:42.500 ,0,0,0.,24.0,0.,24.0,0.,24.0,0.,24.0
1979-08-06 02:24:06.500 ,0,1,0.,24.0,0.,24.0,0.,24.0,0.,24.0
1979-08-06 02:24:30.500 ,0,0,0.,24.0,0.,24.0,0.,24.0,0.,24.0
1979-08-06 02:24:54.500 ,1,1,1.,24.0,0.,24.0,0.,24.0,0.,24.0
1979-08-06 02:25:18.500 ,1,0,0.,24.0,0.,24.0,0.,24.0,0.,24.0
1979-08-06 02:25:42.500 ,2,1,0.,24.0,0.,24.0,0.,24.0,0.,24.0
1979-08-06 02:26:06.500 ,2,0,0.,24.0,0.,24.0,0.,24.0,0.,24.0
1979-08-06 02:26:30.500 ,3,1,0.,24.0,0.,24.0,0.,24.0,0.,24.0
1979-08-06 02:26:54.500 ,3,0,0.,24.0,0.,24.0,0.,24.0,0.,24.0
1979-08-06 02:27:18.500 ,4,1,0.,24.0,0.,24.0,0.,24.0,0.,24.0
1979-08-06 02:27:42.500 ,4,0,0.,24.0,0.,24.0,0.,24.0,0.,24.0
1979-08-06 02:28:06.500 ,5,1,0.,24.0,0.,24.0,0.,24.0,0.,24.0
1979-08-06 02:28:30.500 ,5,0,0.,24.0,0.,24.0,0.,24.0,0.,24.0
1979-08-06 02:28:54.500 ,6,1,0.,24.0,0.,24.0,0.,24.0,0.,24.0
1979-08-06 02:29:18.500 ,6,0,0.,24.0,0.,24.0,0.,24.0,0.,24.0
1979-08-06 02:29:43.100 ,7,1,0.,24.0,0.,24.0,0.,24.0,0.,24.0
1979-08-06 02:30:06.500 ,7,0,0.,24.0,0.,24.0,0.,24.0,0.,24.0
1979-08-06 02:30:30.500 ,7,1,0.,24.0,0.,24.0,0.,24.0,0.,24.0
1979-08-06 02:30:54.500 ,7,0,0.,24.0,0.,24.0,0.,24.0,0.,24.0
1979-08-06 02:31:18.500 ,6,1,0.,24.0,0.,24.0,0.,24.0,0.,24.0
1979-08-06 02:31:42.500 ,6,0,0.,24.0,0.,24.0,0.,24.0,0.,24.0
1979-08-06 02:32:06.500 ,5,1,0.,24.0,0.,24.0,0.,24.0,0.,24.0
1979-08-06 02:32:30.500 ,5,0,0.,24.0,0.,24.0,0.,24.0,0.,24.0
1979-08-06 02:32:54.500 ,4,1,0.,24.0,0.,24.0,0.,24.0,0.,24.0
1979-08-06 02:33:18.500 ,4,0,,0,,0,,0,,0
1979-08-06 02:33:42.500 ,3,1,0.,24.0,0.,24.0,0.,24.0,0.,24.0
1979-08-06 02:34:06.500 ,3,0,0.,24.0,0.,24.0,0.,24.0,0.,24.0
1979-08-06 02:34:30.500 ,2,1,0.,24.0,0.,24.0,0.,24.0,0.,24.0
1979-08-06 02:34:54.500 ,2,0,0.,24.0,0.,24.0,0.,24.0,0.,24.0